Ruby Princess — ZCDY2 — position and weather

sailwx.info

Track history (hours):
 
Tides and Currents Weather Stations Pressure Air Temp Water Temp Dewpoint Dewpoint Depression Visibility Wind Speed Wind Dir Waves Ship Positions

Ruby Princess

Last reported at 2019-Sep-21 00:30 UTC. Time now 2019-Sep-21 00:33 UTC.
Position N 48°14' W 123°30'.

Length 289 m; draft 8.7 m.

Type: Ship. MMSI: 310567000.

Date/timePositionNaut miles runAvg speedWind from/ knotsBaromVisibWave heightAir tempDewpointWater temp
2019-Sep-21 00:30N 48°14' W 123°30'1122.3
2019-Sep-21 00:01N 48°13' W 123°47'1122.7
2019-Sep-20 23:31N 48°16' W 124°03'1121.7
2019-Sep-20 23:00N 48°21' W 124°18'1020.9
2019-Sep-20 22:31N 48°25' W 124°32'1019.6
2019-Sep-20 22:00N 48°29' W 124°46'1018.9
2019-Sep-20 21:30N 48°29' W 125°01'918.1
2019-Sep-20 21:00N 48°30' W 125°14'1020.6
2019-Sep-20 20:30N 48°36' W 125°27'1121.5
2019-Sep-20 20:01N 48°41' W 125°41'1121.3
2019-Sep-20 19:30N 48°46' W 125°55'1121.7
2019-Sep-20 19:01N 48°53' W 126°09'1121.9
2019-Sep-20 18:30N 48°59' W 126°22'1122.1
2019-Sep-20 18:00N 49°06' W 126°36'7919.7
2019-Sep-20 14:00N 49°54' W 128°12'1665.5 340 / 131018.710.8 15.513.915.5
2019-Sep-20 13:45N 50°08' W 128°24'622.0
2019-Sep-20 13:28N 50°13' W 128°30'1022.0
2019-Sep-20 13:00N 50°21' W 128°40'1122.1
2019-Sep-20 12:30N 50°29' W 128°51'1121.8
2019-Sep-20 12:00N 50°38' W 129°01'1121.7
2019-Sep-20 11:30N 50°47' W 129°11'1121.8
2019-Sep-20 11:00N 50°57' W 129°18'3222.1
2019-Sep-20 11:00N 51°00' W 129°18'817.1 270 / 111018.610.8 14.013.214.0
2019-Sep-20 10:30N 51°07' W 129°25'1122.0
2019-Sep-20 10:01N 51°17' W 129°32'1122.1
2019-Sep-20 09:30N 51°27' W 129°39'1122.0
2019-Sep-20 09:00N 51°37' W 129°46'1121.7
2019-Sep-20 08:30N 51°47' W 129°53'1121.5
2019-Sep-20 08:00N 51°57' W 129°59'1121.6
2019-Sep-20 07:30N 52°07' W 130°07'1121.9
2019-Sep-20 07:00N 52°17' W 130°13'1122.2
2019-Sep-20 06:29N 52°28' W 130°21'1122.1
2019-Sep-20 06:00N 52°38' W 130°27'3922.8
2019-Sep-20 04:17N 53°14' W 130°53'1322.5
2019-Sep-20 03:42N 53°26' W 131°01'522.5
2019-Sep-20 03:30N 53°30' W 131°01'1122.5
2019-Sep-20 03:00N 53°42' W 131°01'1122.3
2019-Sep-20 02:30N 53°53' W 131°02'1122.0
2019-Sep-20 02:00N 54°04' W 131°02'1121.7
2019-Sep-20 01:30N 54°15' W 131°04'1121.5
2019-Sep-20 01:00N 54°24' W 131°12'1122.2
2019-Sep-20 00:30N 54°34' W 131°23'1121.6
2019-Sep-20 00:00N 54°42' W 131°33'1120.1
2019-Sep-19 23:29N 54°52' W 131°40'23210.2
2019-Sep-19 00:44N 58°10' W 135°18'619.6
2019-Sep-19 00:26N 58°13' W 135°28'819.1
2019-Sep-19 00:00N 58°17' W 135°42'918.2
2019-Sep-18 23:30N 58°21' W 135°57'612.4
2019-Sep-18 23:00N 58°27' W 136°01'715.0
2019-Sep-18 22:30N 58°34' W 136°04'917.8
2019-Sep-18 22:00N 58°42' W 136°13'714.1
2019-Sep-18 21:30N 58°46' W 136°23'7 1.5
2019-Sep-18 16:58N 58°51' W 136°33'1014.8
2019-Sep-18 16:18N 58°45' W 136°18'413.5
2019-Sep-18 16:00N 58°42' W 136°13'917.3
2019-Sep-18 15:31N 58°35' W 136°04'715.0
2019-Sep-18 15:01N 58°27' W 136°01'5 9.3
2019-Sep-18 14:30N 58°23' W 135°57'5 9.0
2019-Sep-18 14:00N 58°19' W 135°53'510.9
2019-Sep-18 13:30N 58°18' W 135°43'510.8
2019-Sep-18 13:00N 58°16' W 135°33'611.1
2019-Sep-18 12:28N 58°14' W 135°23'  
2019-Sep-15 22:00N 52°06' W 131°48'12620.3 300 / 181007.510.8 14.210.314.0
2019-Sep-15 15:46N 50°39' W 129°21'1320.3
2019-Sep-15 15:08N 50°30' W 129°06'519.9
2019-Sep-15 14:53N 50°27' W 129°00'1213.3
2019-Sep-15 14:00N 50°18' W 128°48'1439.1 210 / 81003.210.8 14.010.516.0
2019-Sep-15 13:39N 50°09' W 128°32'6918.8
2019-Sep-15 10:00N 49°24' W 127°12'2337.1 210 / 141003.810.8 15.513.017.0
2019-Sep-15 09:22N 49°11' W 126°43'821.5
2019-Sep-15 09:01N 49°06' W 126°33'1121.4
2019-Sep-15 08:30N 49°00' W 126°20'1121.7
2019-Sep-15 08:01N 48°54' W 126°06'1121.7
2019-Sep-15 07:31N 48°48' W 125°53'1121.6
2019-Sep-15 07:01N 48°41' W 125°40'1121.5
2019-Sep-15 06:30N 48°36' W 125°26'1121.4
2019-Sep-15 06:00N 48°32' W 125°11'1122.0
2019-Sep-15 05:30N 48°32' W 124°54'1121.7
2019-Sep-15 05:00N 48°29' W 124°38'1122.7
2019-Sep-15 04:30N 48°25' W 124°23'1122.6
2019-Sep-15 04:00N 48°20' W 124°07'1222.9
2019-Sep-15 03:30N 48°17' W 123°50'1122.5
2019-Sep-15 03:00N 48°15' W 123°34'1019.3
2019-Sep-15 02:30N 48°09' W 123°22'816.1
2019-Sep-15 02:01N 48°12' W 123°11'6325.2
2019-Sep-15 02:00N 48°06' W 123°12'1326.9 230 / 91008.310.8 14.513.714.0
2019-Sep-15 01:30N 48°12' W 122°55'1419.5
2019-Sep-15 00:49N 48°04' W 122°38'720.9
2019-Sep-15 00:28N 47°57' W 122°33'1021.3
2019-Sep-15 00:01N 47°49' W 122°27'1020.6
2019-Sep-14 23:30N 47°38' W 122°27'3 5.0
2019-Sep-14 23:00N 47°38' W 122°23'0 0.0
2019-Sep-14 22:28N 47°38' W 122°23'0 0.0
2019-Sep-14 22:00N 47°38' W 122°23'0 0.0
2019-Sep-14 21:30N 47°38' W 122°23'0 0.0
2019-Sep-14 21:00N 47°38' W 122°23'0 0.0
2019-Sep-14 20:30N 47°38' W 122°23'0 0.0
2019-Sep-14 20:00N 47°38' W 122°23'0 0.0
2019-Sep-14 19:29N 47°38' W 122°23'0 0.0
2019-Sep-14 18:59N 47°38' W 122°23'0 0.0
2019-Sep-14 18:29N 47°38' W 122°23'0 0.0
2019-Sep-14 17:59N 47°38' W 122°23'0 0.0
2019-Sep-14 17:28N 47°38' W 122°23'0 0.0
2019-Sep-14 16:58N 47°38' W 122°23'0 0.0
2019-Sep-14 16:28N 47°38' W 122°23'0 0.0
2019-Sep-14 15:58N 47°38' W 122°23'0 0.0
2019-Sep-14 15:28N 47°38' W 122°23'0 0.0
2019-Sep-14 15:00N 47°38' W 122°23'0 0.0
2019-Sep-14 14:30N 47°38' W 122°23'0 0.0
2019-Sep-14 14:00N 47°38' W 122°23'0 0.0
2019-Sep-14 13:30N 47°38' W 122°23'0 0.0
2019-Sep-14 12:59N 47°38' W 122°23'1 2.1
2019-Sep-14 12:30N 47°37' W 122°24'713.2
2019-Sep-14 12:00N 47°44' W 122°27'815.6
2019-Sep-14 11:31N 47°51' W 122°29'815.6
2019-Sep-14 11:00N 47°58' W 122°35'816.1
2019-Sep-14 10:29N 48°06' W 122°40'817.5
2019-Sep-14 10:01N 48°11' W 122°50'916.7
2019-Sep-14 09:30N 48°11' W 123°02'714.8
2019-Sep-14 09:00N 48°11' W 123°13'815.1
2019-Sep-14 08:30N 48°10' W 123°24'510.1
2019-Sep-14 08:00N 48°13' W 123°31'815.2
2019-Sep-14 07:30N 48°20' W 123°27'510.8
2019-Sep-14 07:00N 48°25' W 123°24'0 0.6
2019-Sep-14 06:30N 48°25' W 123°23'0 0.0
2019-Sep-14 06:00N 48°25' W 123°23'0 0.0
2019-Sep-14 05:30N 48°25' W 123°23'0 0.0
2019-Sep-14 05:00N 48°25' W 123°23'0 0.0
2019-Sep-14 04:30N 48°25' W 123°23'0 0.0
2019-Sep-14 03:59N 48°25' W 123°23'0 0.0
2019-Sep-14 03:29N 48°25' W 123°23'0 0.0
2019-Sep-14 02:59N 48°25' W 123°23'0 0.0
2019-Sep-14 02:29N 48°25' W 123°23'0 0.0
2019-Sep-14 01:59N 48°25' W 123°23'1 1.4
2019-Sep-14 01:30N 48°25' W 123°24'510.1
2019-Sep-14 01:01N 48°20' W 123°24'917.9
2019-Sep-14 00:30N 48°13' W 123°34'1223.2
2019-Sep-14 00:00N 48°14' W 123°51'1223.3
2019-Sep-13 23:30N 48°18' W 124°07'1122.7
2019-Sep-13 23:01N 48°22' W 124°23'1020.9
2019-Sep-13 22:30N 48°27' W 124°37'1020.7
2019-Sep-13 22:00N 48°29' W 124°52'1020.3
2019-Sep-13 21:30N 48°29' W 125°08'918.7
2019-Sep-13 21:01N 48°33' W 125°21'1121.8
2019-Sep-13 20:31N 48°37' W 125°35'1121.7
2019-Sep-13 20:01N 48°43' W 125°49'1121.2
2019-Sep-13 19:30N 48°49' W 126°03'1121.8
2019-Sep-13 19:00N 48°55' W 126°16'1122.3
2019-Sep-13 18:30N 49°02' W 126°30'1222.3
2019-Sep-13 17:59N 49°09' W 126°45'9121.2
2019-Sep-13 13:41N 50°10' W 128°28'2221.5
2019-Sep-13 12:39N 50°28' W 128°49'422.1
2019-Sep-13 12:29N 50°31' W 128°53'1122.7
2019-Sep-13 12:00N 50°40' W 129°03'1122.7
2019-Sep-13 11:30N 50°49' W 129°14'1122.3
2019-Sep-13 11:00N 50°59' W 129°21'1121.9
2019-Sep-13 10:30N 51°10' W 129°27'1121.8
2019-Sep-13 10:00N 51°20' W 129°34'3213.2
2019-Sep-13 10:00N 51°18' W 129°30'1428.0 200 / 161011.310.8 15.514.714.0
2019-Sep-13 09:30N 51°30' W 129°41'1121.9
2019-Sep-13 08:59N 51°40' W 129°48'1222.0
2019-Sep-13 08:28N 51°51' W 129°55'10321.8
2019-Sep-13 03:45N 53°26' W 131°01'521.5
2019-Sep-13 03:30N 53°31' W 131°01'1121.5
2019-Sep-13 03:00N 53°42' W 131°01'1121.7
2019-Sep-13 02:30N 53°53' W 131°02'2221.6
2019-Sep-13 01:30N 54°14' W 131°04'1120.2
2019-Sep-13 00:59N 54°24' W 131°12'1221.0
2019-Sep-13 00:25N 54°34' W 131°23'25610.9
2019-Sep-12 00:57N 58°12' W 135°26'919.8
2019-Sep-12 00:30N 58°16' W 135°40'917.1
2019-Sep-12 00:00N 58°20' W 135°55'713.6
2019-Sep-11 23:30N 58°26' W 135°59'714.6
2019-Sep-11 23:00N 58°33' W 136°04'917.8
2019-Sep-11 22:30N 58°41' W 136°11'713.9
2019-Sep-11 22:00N 58°46' W 136°21'2 0.4
2019-Sep-11 15:55N 58°44' W 136°17'614.6
2019-Sep-11 15:30N 58°40' W 136°09'918.3
2019-Sep-11 15:00N 58°31' W 136°04'713.5
2019-Sep-11 14:30N 58°25' W 135°58'510.5
2019-Sep-11 14:00N 58°20' W 135°56'510.4
2019-Sep-11 13:30N 58°18' W 135°47'611.4
2019-Sep-11 13:00N 58°16' W 135°36'611.2
2019-Sep-11 12:29N 58°14' W 135°26'  
Track history (hours):
 
Tides and Currents Weather Stations Pressure Air Temp Water Temp Dewpoint Dewpoint Depression Visibility Wind Speed Wind Dir Waves Ship Positions

Ruby Princess

Last reported at 2019-Sep-21 00:30 UTC. Time now 2019-Sep-21 00:33 UTC.
Position N 48°14' W 123°30'.

Length 289 m; draft 8.7 m.

Type: Ship. MMSI: 310567000.

Date/timePositionNaut miles runAvg speedWind from/ knotsBaromVisibWave heightAir tempDewpointWater temp
2019-Sep-21 00:30N 48°14' W 123°30'1122.3
2019-Sep-21 00:01N 48°13' W 123°47'1122.7
2019-Sep-20 23:31N 48°16' W 124°03'1121.7
2019-Sep-20 23:00N 48°21' W 124°18'1020.9
2019-Sep-20 22:31N 48°25' W 124°32'1019.6
2019-Sep-20 22:00N 48°29' W 124°46'1018.9
2019-Sep-20 21:30N 48°29' W 125°01'918.1
2019-Sep-20 21:00N 48°30' W 125°14'1020.6
2019-Sep-20 20:30N 48°36' W 125°27'1121.5
2019-Sep-20 20:01N 48°41' W 125°41'1121.3
2019-Sep-20 19:30N 48°46' W 125°55'1121.7
2019-Sep-20 19:01N 48°53' W 126°09'1121.9
2019-Sep-20 18:30N 48°59' W 126°22'1122.1
2019-Sep-20 18:00N 49°06' W 126°36'7919.7
2019-Sep-20 14:00N 49°54' W 128°12'1665.5 340 / 131018.710.8 15.513.915.5
2019-Sep-20 13:45N 50°08' W 128°24'622.0
2019-Sep-20 13:28N 50°13' W 128°30'1022.0
2019-Sep-20 13:00N 50°21' W 128°40'1122.1
2019-Sep-20 12:30N 50°29' W 128°51'1121.8
2019-Sep-20 12:00N 50°38' W 129°01'1121.7
2019-Sep-20 11:30N 50°47' W 129°11'1121.8
2019-Sep-20 11:00N 50°57' W 129°18'3222.1
2019-Sep-20 11:00N 51°00' W 129°18'817.1 270 / 111018.610.8 14.013.214.0
2019-Sep-20 10:30N 51°07' W 129°25'1122.0
2019-Sep-20 10:01N 51°17' W 129°32'1122.1
2019-Sep-20 09:30N 51°27' W 129°39'1122.0
2019-Sep-20 09:00N 51°37' W 129°46'1121.7
2019-Sep-20 08:30N 51°47' W 129°53'1121.5
2019-Sep-20 08:00N 51°57' W 129°59'1121.6
2019-Sep-20 07:30N 52°07' W 130°07'1121.9
2019-Sep-20 07:00N 52°17' W 130°13'1122.2
2019-Sep-20 06:29N 52°28' W 130°21'1122.1
2019-Sep-20 06:00N 52°38' W 130°27'3922.8
2019-Sep-20 04:17N 53°14' W 130°53'1322.5
2019-Sep-20 03:42N 53°26' W 131°01'522.5
2019-Sep-20 03:30N 53°30' W 131°01'1122.5
2019-Sep-20 03:00N 53°42' W 131°01'1122.3
2019-Sep-20 02:30N 53°53' W 131°02'1122.0
2019-Sep-20 02:00N 54°04' W 131°02'1121.7
2019-Sep-20 01:30N 54°15' W 131°04'1121.5
2019-Sep-20 01:00N 54°24' W 131°12'1122.2
2019-Sep-20 00:30N 54°34' W 131°23'1121.6
2019-Sep-20 00:00N 54°42' W 131°33'1120.1
2019-Sep-19 23:29N 54°52' W 131°40'23210.2
2019-Sep-19 00:44N 58°10' W 135°18'619.6
2019-Sep-19 00:26N 58°13' W 135°28'819.1
2019-Sep-19 00:00N 58°17' W 135°42'918.2
2019-Sep-18 23:30N 58°21' W 135°57'612.4
2019-Sep-18 23:00N 58°27' W 136°01'715.0
2019-Sep-18 22:30N 58°34' W 136°04'917.8
2019-Sep-18 22:00N 58°42' W 136°13'714.1
2019-Sep-18 21:30N 58°46' W 136°23'7 1.5
2019-Sep-18 16:58N 58°51' W 136°33'1014.8
2019-Sep-18 16:18N 58°45' W 136°18'413.5
2019-Sep-18 16:00N 58°42' W 136°13'917.3
2019-Sep-18 15:31N 58°35' W 136°04'715.0
2019-Sep-18 15:01N 58°27' W 136°01'5 9.3
2019-Sep-18 14:30N 58°23' W 135°57'5 9.0
2019-Sep-18 14:00N 58°19' W 135°53'510.9
2019-Sep-18 13:30N 58°18' W 135°43'510.8
2019-Sep-18 13:00N 58°16' W 135°33'611.1
2019-Sep-18 12:28N 58°14' W 135°23'  
2019-Sep-15 22:00N 52°06' W 131°48'12620.3 300 / 181007.510.8 14.210.314.0
2019-Sep-15 15:46N 50°39' W 129°21'1320.3
2019-Sep-15 15:08N 50°30' W 129°06'519.9
2019-Sep-15 14:53N 50°27' W 129°00'1213.3
2019-Sep-15 14:00N 50°18' W 128°48'1439.1 210 / 81003.210.8 14.010.516.0
2019-Sep-15 13:39N 50°09' W 128°32'6918.8
2019-Sep-15 10:00N 49°24' W 127°12'2337.1 210 / 141003.810.8 15.513.017.0
2019-Sep-15 09:22N 49°11' W 126°43'821.5
2019-Sep-15 09:01N 49°06' W 126°33'1121.4
2019-Sep-15 08:30N 49°00' W 126°20'1121.7
2019-Sep-15 08:01N 48°54' W 126°06'1121.7
2019-Sep-15 07:31N 48°48' W 125°53'1121.6
2019-Sep-15 07:01N 48°41' W 125°40'1121.5
2019-Sep-15 06:30N 48°36' W 125°26'1121.4
2019-Sep-15 06:00N 48°32' W 125°11'1122.0
2019-Sep-15 05:30N 48°32' W 124°54'1121.7
2019-Sep-15 05:00N 48°29' W 124°38'1122.7
2019-Sep-15 04:30N 48°25' W 124°23'1122.6
2019-Sep-15 04:00N 48°20' W 124°07'1222.9
2019-Sep-15 03:30N 48°17' W 123°50'1122.5
2019-Sep-15 03:00N 48°15' W 123°34'1019.3
2019-Sep-15 02:30N 48°09' W 123°22'816.1
2019-Sep-15 02:01N 48°12' W 123°11'6325.2
2019-Sep-15 02:00N 48°06' W 123°12'1326.9 230 / 91008.310.8 14.513.714.0
2019-Sep-15 01:30N 48°12' W 122°55'1419.5
2019-Sep-15 00:49N 48°04' W 122°38'720.9
2019-Sep-15 00:28N 47°57' W 122°33'1021.3
2019-Sep-15 00:01N 47°49' W 122°27'1020.6
2019-Sep-14 23:30N 47°38' W 122°27'3 5.0
2019-Sep-14 23:00N 47°38' W 122°23'0 0.0
2019-Sep-14 22:28N 47°38' W 122°23'0 0.0
2019-Sep-14 22:00N 47°38' W 122°23'0 0.0
2019-Sep-14 21:30N 47°38' W 122°23'0 0.0
2019-Sep-14 21:00N 47°38' W 122°23'0 0.0
2019-Sep-14 20:30N 47°38' W 122°23'0 0.0
2019-Sep-14 20:00N 47°38' W 122°23'0 0.0
2019-Sep-14 19:29N 47°38' W 122°23'0 0.0
2019-Sep-14 18:59N 47°38' W 122°23'0 0.0
2019-Sep-14 18:29N 47°38' W 122°23'0 0.0
2019-Sep-14 17:59N 47°38' W 122°23'0 0.0
2019-Sep-14 17:28N 47°38' W 122°23'0 0.0
2019-Sep-14 16:58N 47°38' W 122°23'0 0.0
2019-Sep-14 16:28N 47°38' W 122°23'0 0.0
2019-Sep-14 15:58N 47°38' W 122°23'0 0.0
2019-Sep-14 15:28N 47°38' W 122°23'0 0.0
2019-Sep-14 15:00N 47°38' W 122°23'0 0.0
2019-Sep-14 14:30N 47°38' W 122°23'0 0.0
2019-Sep-14 14:00N 47°38' W 122°23'0 0.0
2019-Sep-14 13:30N 47°38' W 122°23'0 0.0
2019-Sep-14 12:59N 47°38' W 122°23'1 2.1
2019-Sep-14 12:30N 47°37' W 122°24'713.2
2019-Sep-14 12:00N 47°44' W 122°27'815.6
2019-Sep-14 11:31N 47°51' W 122°29'815.6
2019-Sep-14 11:00N 47°58' W 122°35'816.1
2019-Sep-14 10:29N 48°06' W 122°40'817.5
2019-Sep-14 10:01N 48°11' W 122°50'916.7
2019-Sep-14 09:30N 48°11' W 123°02'714.8
2019-Sep-14 09:00N 48°11' W 123°13'815.1
2019-Sep-14 08:30N 48°10' W 123°24'510.1
2019-Sep-14 08:00N 48°13' W 123°31'815.2
2019-Sep-14 07:30N 48°20' W 123°27'510.8
2019-Sep-14 07:00N 48°25' W 123°24'0 0.6
2019-Sep-14 06:30N 48°25' W 123°23'0 0.0
2019-Sep-14 06:00N 48°25' W 123°23'0 0.0
2019-Sep-14 05:30N 48°25' W 123°23'0 0.0
2019-Sep-14 05:00N 48°25' W 123°23'0 0.0
2019-Sep-14 04:30N 48°25' W 123°23'0 0.0
2019-Sep-14 03:59N 48°25' W 123°23'0 0.0
2019-Sep-14 03:29N 48°25' W 123°23'0 0.0
2019-Sep-14 02:59N 48°25' W 123°23'0 0.0
2019-Sep-14 02:29N 48°25' W 123°23'0 0.0
2019-Sep-14 01:59N 48°25' W 123°23'1 1.4
2019-Sep-14 01:30N 48°25' W 123°24'510.1
2019-Sep-14 01:01N 48°20' W 123°24'917.9
2019-Sep-14 00:30N 48°13' W 123°34'1223.2
2019-Sep-14 00:00N 48°14' W 123°51'1223.3
2019-Sep-13 23:30N 48°18' W 124°07'1122.7
2019-Sep-13 23:01N 48°22' W 124°23'1020.9
2019-Sep-13 22:30N 48°27' W 124°37'1020.7
2019-Sep-13 22:00N 48°29' W 124°52'1020.3
2019-Sep-13 21:30N 48°29' W 125°08'918.7
2019-Sep-13 21:01N 48°33' W 125°21'1121.8
2019-Sep-13 20:31N 48°37' W 125°35'1121.7
2019-Sep-13 20:01N 48°43' W 125°49'1121.2
2019-Sep-13 19:30N 48°49' W 126°03'1121.8
2019-Sep-13 19:00N 48°55' W 126°16'1122.3
2019-Sep-13 18:30N 49°02' W 126°30'1222.3
2019-Sep-13 17:59N 49°09' W 126°45'9121.2
2019-Sep-13 13:41N 50°10' W 128°28'2221.5
2019-Sep-13 12:39N 50°28' W 128°49'422.1
2019-Sep-13 12:29N 50°31' W 128°53'1122.7
2019-Sep-13 12:00N 50°40' W 129°03'1122.7
2019-Sep-13 11:30N 50°49' W 129°14'1122.3
2019-Sep-13 11:00N 50°59' W 129°21'1121.9
2019-Sep-13 10:30N 51°10' W 129°27'1121.8
2019-Sep-13 10:00N 51°20' W 129°34'3213.2
2019-Sep-13 10:00N 51°18' W 129°30'1428.0 200 / 161011.310.8 15.514.714.0
2019-Sep-13 09:30N 51°30' W 129°41'1121.9
2019-Sep-13 08:59N 51°40' W 129°48'1222.0
2019-Sep-13 08:28N 51°51' W 129°55'10321.8
2019-Sep-13 03:45N 53°26' W 131°01'521.5
2019-Sep-13 03:30N 53°31' W 131°01'1121.5
2019-Sep-13 03:00N 53°42' W 131°01'1121.7
2019-Sep-13 02:30N 53°53' W 131°02'2221.6
2019-Sep-13 01:30N 54°14' W 131°04'1120.2
2019-Sep-13 00:59N 54°24' W 131°12'1221.0
2019-Sep-13 00:25N 54°34' W 131°23'25610.9
2019-Sep-12 00:57N 58°12' W 135°26'919.8
2019-Sep-12 00:30N 58°16' W 135°40'917.1
2019-Sep-12 00:00N 58°20' W 135°55'713.6
2019-Sep-11 23:30N 58°26' W 135°59'714.6
2019-Sep-11 23:00N 58°33' W 136°04'917.8
2019-Sep-11 22:30N 58°41' W 136°11'713.9
2019-Sep-11 22:00N 58°46' W 136°21'2 0.4
2019-Sep-11 15:55N 58°44' W 136°17'614.6
2019-Sep-11 15:30N 58°40' W 136°09'918.3
2019-Sep-11 15:00N 58°31' W 136°04'713.5
2019-Sep-11 14:30N 58°25' W 135°58'510.5
2019-Sep-11 14:00N 58°20' W 135°56'510.4
2019-Sep-11 13:30N 58°18' W 135°47'611.4
2019-Sep-11 13:00N 58°16' W 135°36'611.2
2019-Sep-11 12:29N 58°14' W 135°26'  

Dump ship's entire track history